Weather History for KMCO - May, 2012

Change the Weather History Date:

Wednesday, May 9, 2012

  Actual Average Record
Temperature  
Mean Temperature 78 °F 76 °F  
Max Temperature 88 °F 87 °F 98 °F (1915)
Min Temperature 67 °F 65 °F 50 °F (1928)
Degree Days  
Heating Degree Days 0 0  
Month to date heating degree days 0 0  
Since 1 July heating degree days 313 570  
Cooling Degree Days 13 11  
Month to date cooling degree days 122 90  
Year to date cooling degree days 735 511  
Growing Degree Days 26 (Base 50)    
Moisture  
Dew Point 69 °F    
Average Humidity 77    
Maximum Humidity 100    
Minimum Humidity 53    
Precipitation  
Precipitation 0.17 in 0.08 in 3.14 in (1980)
Month to date precipitation 0.52 0.65  
Year to date precipitation 6.27 11.83  
Sea Level Pressure  
Sea Level Pressure 29.85 in    
Wind  
Wind Speed 7 mph (WSW)    
Max Wind Speed 29 mph    
Max Gust Speed 37 mph    
Visibility 9 miles    
Events Fog , Rain , Thunderstorm    
T = Trace of Precipitation, MM = Missing Value Source: NWS Daily Summary

Daily Weather History Graph

Daily Weather History Graph

Search for Another Location

Airport or City:

Trip Planner

Search our weather history database for the weather conditions in past years. The results will help you decide how hot, cold, wet, or windy it might be!

Date:

Astronomy

May. 09, 2012 Rise Set
Actual Time 6:38 AM EDT 8:05 PM EDT
Civil Twilight 6:12 AM EDT 8:30 PM EDT
Nautical Twilight 5:42 AM EDT 9:01 PM EDT
Astronomical Twilight 5:11 AM EDT 9:32 PM EDT
Moon No Moon Rise 9:56 AM EDT (5/9)
Length of Visible Light 14h 17m
Length of Day
13h 27m
Waning Gibbous, 83% of the Moon is Illuminated
May 9
Waning Gibbous
May 12
Last Quarter
May 20
New
May 28
First Quarter
Jun 4
Full

Hourly Weather History & Observations

Time (EDT) Temp. Heat Index Dew Point Humidity Pressure Visibility Wind Dir Wind Speed Gust Speed Precip Events Conditions
12:53 AM 72.0 °F - 72.0 °F 100% 29.90 in 10.0 mi Calm Calm - N/A   Partly Cloudy
1:53 AM 69.1 °F - 69.1 °F 100% 29.89 in 8.0 mi Calm Calm - N/A Fog Patches of Fog
2:53 AM 71.1 °F - 70.0 °F 96% 29.87 in 10.0 mi West 3.5 mph - N/A   Clear
3:53 AM 71.6 °F - 69.8 °F 94% 29.87 in 10.0 mi West 4.6 mph - N/A   Clear
5:53 AM 69.8 °F - 68.0 °F 94% 29.88 in 10.0 mi West 4.6 mph - N/A   Partly Cloudy
6:53 AM 66.2 °F - 66.2 °F 100% 29.89 in 8.0 mi Calm Calm - N/A Fog Patches of Fog
7:53 AM 69.8 °F - 69.8 °F 100% 29.90 in 8.0 mi SW 3.5 mph - N/A   Clear
8:53 AM 75.2 °F - 69.8 °F 83% 29.90 in 10.0 mi SW 5.8 mph - N/A   Partly Cloudy
9:53 AM 78.8 °F - 69.8 °F 74% 29.90 in 10.0 mi SW 5.8 mph - N/A   Scattered Clouds
10:53 AM 82.4 °F 85.4 °F 68.0 °F 62% 29.90 in 10.0 mi SW 8.1 mph - N/A   Scattered Clouds
11:53 AM 82.4 °F 84.6 °F 66.2 °F 58% 29.89 in 10.0 mi WSW 5.8 mph - N/A   Scattered Clouds
12:53 PM 82.4 °F 84.6 °F 66.2 °F 58% 29.86 in 10.0 mi SW 3.5 mph - N/A   Scattered Clouds
1:28 PM 84.2 °F 86.6 °F 66.2 °F 55% 29.87 in 9.0 mi West 23.0 mph 36.8 mph N/A Rain , Thunderstorm Light Thunderstorms and Rain
1:53 PM 71.6 °F - 69.8 °F 94% 29.87 in 7.0 mi SW 6.9 mph - N/A Rain , Thunderstorm Light Thunderstorms and Rain
2:23 PM 75.2 °F - 75.2 °F 100% 29.85 in 10.0 mi Calm Calm - N/A   Mostly Cloudy
2:53 PM 80.6 °F 84.6 °F 71.6 °F 74% 29.83 in 10.0 mi SW 5.8 mph - N/A   Mostly Cloudy
3:53 PM 87.1 °F 90.6 °F 68.0 °F 53% 29.79 in 10.0 mi WSW 10.4 mph 17.3 mph N/A   Mostly Cloudy
4:53 PM 84.9 °F 87.1 °F 66.0 °F 53% 29.78 in 10.0 mi West 16.1 mph 24.2 mph N/A   Mostly Cloudy
5:53 PM 82.0 °F 84.9 °F 68.0 °F 62% 29.78 in 10.0 mi West 13.8 mph - N/A   Mostly Cloudy
6:53 PM 82.0 °F 85.9 °F 70.0 °F 67% 29.78 in 10.0 mi West 13.8 mph 19.6 mph N/A   Mostly Cloudy
7:53 PM 79.0 °F - 70.0 °F 74% 29.79 in 10.0 mi West 13.8 mph - N/A   Mostly Cloudy
8:53 PM 79.0 °F - 69.1 °F 72% 29.80 in 10.0 mi West 15.0 mph 20.7 mph N/A   Overcast
9:53 PM 77.0 °F - 70.0 °F 79% 29.81 in 10.0 mi West 10.4 mph - N/A   Mostly Cloudy
10:53 PM 75.0 °F - 70.0 °F 84% 29.82 in 10.0 mi SW 6.9 mph - N/A   Scattered Clouds
11:53 PM 73.9 °F - 71.1 °F 91% 29.83 in 10.0 mi WSW 4.6 mph - N/A   Scattered Clouds